Terug naar catalogus

FREGAT DEB

LostUNKNOWN
NORAD 46518·DEBRIS·🇷🇺 Russia

Gelanceerd Jul 18, 2011 vanaf Baikonur Cosmodrome

Loading…

Volgende Passages (komende 24 uur)

TLE

VerouderdSource: Space-Track

Epoch: Nov 12, 2020, 10:45 UTC

1 46518U 11037LW  20317.44798551 -.00000195  00000-0 -11342-2 0  9992
2 46518  51.5386 103.1638 2031482 236.7518 102.2170  9.79902350  7170

Volg FREGAT DEB in realtime met AllMySat

Download on the App Store